Hourly Weather Roundup
Issued by NWS Central Illinois

Home | Current Version | Previous Version | Text Only | Print | Product List | Glossary On
Versions: 1 2 3 4 5 6 7 8 9 10 11 12 13 14 15 16 17 18 19 20 21 22 23 24 25 26 27 28 29 30 31 32 33 34 35 36 37 38 39 40 41 42 43 44 45 46 47 48 49 50
762
NZUS43 KILX 280710
HWRILX

AREA WEATHER ROUNDUP
NATIONAL WEATHER SERVICE, LINCOLN IL
200 AM CDT TUE MAR 28 2017


CITY           SKY/WX    TMP DP  RH WIND       PRES   REMARKS
BLOOMINGTON    CLOUDY    45  43  93 N10       29.98R
CHAMPAIGN      CLOUDY    48  45  89 N14       29.93R FOG
DECATUR        CLOUDY    51  48  89 N9        29.95R
EFFINGHAM      CLOUDY    54  53  97 N10G17    29.93R
FLORA          CLOUDY    57  54  89 N10       29.90R
GALESBURG      CLOUDY    48  47  95 N5        29.98S
JACKSONVILLE   CLOUDY    50  49  95 N3        29.98S FOG
LACON          CLOUDY    47  46  97 NE5       29.98S FOG
LAWRENCEVILLE  CLOUDY    56  55  97 N12       29.87R
LITCHFIELD     CLOUDY    51  50  95 N10       29.96R
$$


CITY           SKY/WX    TMP DP  RH WIND       PRES   REMARKS
LINCOLN        CLOUDY    51  51 100 N6        29.97R FOG
MACOMB         CLOUDY    49  48  96 N7        30.01S FOG
MATTOON        CLOUDY    50  50 100 N13       29.91R FOG
MT CARMEL AP   CLOUDY    56  54  91 NW10      29.87R
OLNEY-NOBLE AP CLOUDY    54  54 100 N10       29.89R
PARIS          CLOUDY    50  50  99 N8        29.90S FOG
PEORIA         CLOUDY    51  49  92 N3        29.98S
PONTIAC        CLOUDY    46  45  96 NE9       29.98S
RANTOUL        CLOUDY    47  45  94 N12       29.94R FOG
SPRINGFIELD    CLOUDY    53  49  86 NW10      29.98R FOG
TAYLORVILLE    NOT AVBL
$$

...REGIONAL REPORTS...


CITY           SKY/WX    TMP DP  RH WIND       PRES   REMARKS
CHICAGO O`HARE CLOUDY    42  36  79 N9        29.98F
KANKAKEE       CLEAR     40  37  89 N7        29.97S
MOLINE         CLOUDY    50  44  80 N3        29.99S
MOUNT STERLING CLOUDY    49  47  93 NW5       29.99R
MOUNT VERNON   CLOUDY    56  53  90 VRB5      29.91R
PITTSFIELD     CLOUDY    51  50  95 NW6       30.00S FOG
QUINCY         CLOUDY    50  47  89 NW5       29.99S
ROCKFORD       DRIZZLE   45  41  86 E6        30.02R FOG
$$


CITY           SKY/WX    TMP DP  RH WIND       PRES   REMARKS
BURLINGTON     CLOUDY    49  47  93 N6        29.99R
CEDAR RAPIDS   CLOUDY    46  46 100 N5        30.00R
DES MOINES     CLOUDY    48  41  76 N3        30.04R
KIRKSVILLE     CLOUDY    48  47  96 N3        30.01S FOG
OTTUMWA        CLOUDY    47  45  93 NW6       30.01R
ST LOUIS       DRIZZLE   54  51  90 N10       29.97R FOG
$$


CITY           SKY/WX    TMP DP  RH WIND       PRES   REMARKS
TERRE HAUTE    CLOUDY    55  52  89 N10       29.86S
EVANSVILLE     CLOUDY    56  52  86 W6        29.87R
INDIANAPOLIS   CLOUDY    55  53  93 N12       29.84F
LAFAYETTE      CLOUDY    48  47  96 N8        29.90R
MADISON        CLOUDY    42  41  96 N5        30.01S FOG
MILWAUKEE      CLOUDY    40  34  79 N9        30.02R WCI  34
$$






USA.gov is the U.S. government's official web portal to all federal, state and local government web resources and services.